Hourly Data Report for December 30, 2020

MUSKOKA
ONTARIO
Current Station Operator: NAVCAN

44°58'29.000" N
79°18'12.000" W
281.90 m
6115529
71532
YQA

Download Data

Hourly Data (December 2020)
Hourly Data Report for December 30, 2020
TIME
LST
Temp Definition
°C
Dew Point Definition
°C
Rel Hum Definition
%
Precip. Amount Definition
mm

Wind Dir Definition
10's deg

Wind Spd Definition
km/h
Visibility Definition
km
Stn Press Definition
kPa
Hmdx Definition


Wind Chill Definition


Weather Definition


00:00 -7.4 -9.7 84 LegendMM 17 5 16.1 99.48   -10 LegendNANA
01:00 -7.4 -9.8 83 LegendMM 14 8 16.1 99.38   -11 LegendNANA
02:00 -7.2 -9.8 82 LegendMM 13 8 16.1 99.31   -11 LegendNANA
03:00 -6.8 -9.7 80 LegendMM 12 8 16.1 99.18   -11 LegendNANA
04:00 -6.6 -9.8 78 LegendMM 13 11 16.1 98.98   -12 LegendNANA
05:00 -5.8 -9.2 77 LegendMM 14 15 16.1 98.92   -12 LegendNANA
06:00 -5.3 -8.2 80 LegendMM 13 17 16.1 98.68   -11 LegendNANA
07:00 -5.5 -7.0 89 LegendMM 13 21 1.6 98.48   -12 Snow
08:00 -4.9 -6.2 91 LegendMM 13 24 1.2 98.29   -12 Snow
09:00 -4.2 -5.9 88 LegendMM 14 24 16.1 98.15   -11 LegendNANA
10:00 -3.7 -5.1 90 LegendMM 14 28 1.2 97.92   -11 Snow
11:00 -3.1 -4.4 91 LegendMM 17 26 1.2 97.75   -10 Snow
12:00 -2.5 -3.6 92 251.2 16 22 1.2 97.60   -9 Snow
13:00 -1.9 -3.0 92 413.8 15 21 4.8 97.37   -8 Snow
14:00 -1.2 -2.0 94 227.8 15 18 2.4 97.24   -6 Snow
15:00 -0.3 -1.0 95 197.1 17 15 2.4 97.20   -5 Snow
16:00 0.5 -0.2 95 410.5 18 15 11.3 97.10     Rain
17:00 0.6 0.0 96 226.6 20 15 3.2 97.13     Rain, Fog
18:00 0.8 0.4 97 197.1 19 13 8.1 97.03     Rain, Fog
19:00 1.0 0.6 97 LegendMM 20 11 16.1 97.07     LegendNANA
20:00 1.6 0.6 93 0.0 23 18 16.1 97.01     LegendNANA
21:00 0.5 -0.4 94 51.3 24 28 1.6 97.09     Snow
22:00 0.9 -0.6 90 73.4 28 22 16.1 97.18     Rain
23:00 0.8 -1.8 83 0.0 27 17 16.1 97.20     Rain

Notes on Data Quality.

Legend

  • E = Estimated
  • M = Missing
  • NA = Not Available*
  • [empty] = Indicates an unobserved value
Date modified: